When you browse on this site, cookies collect data to enhance your experience and personalize the content and advertising you see.
Visit our Privacy Policy to learn more. By continuing to use the site, you agree to this use of cookies and data.
  • In Romania
  • List of Countries
  • For 7 days
  • Water Temperature
  • Satellite Maps
  • Weather Map
  • Weather Widgets
  • user-avatar
    Login

    Hourly Weather Achisu

    Today, 16 February, Saturday

    Time Temperature Precipitation Wind Pressure Humidity
    00:00 +3°C° 0.1 mm 2 mps 746 mmHg 92%
    01:00 +3°C° 0.1 mm 2 mps 746 mmHg 92%
    02:00 +3°C° 0.1 mm 2 mps 745 mmHg 92%
    03:00 +3°C° 0.1 mm 2 mps 745 mmHg 91%
    04:00 +2°C° 0 mm 2 mps 745 mmHg 92%
    05:00 +2°C° 0 mm 2 mps 744 mmHg 92%
    06:00 +2°C° 0 mm 2 mps 744 mmHg 92%
    07:00 +2°C° 0 mm 2 mps 744 mmHg 90%
    08:00 +3°C° 0 mm 2 mps 744 mmHg 89%
    09:00 +3°C° 0 mm 2 mps 744 mmHg 87%
    10:00 +3°C° 0 mm 2 mps 744 mmHg 83%
    11:00 +4°C° 0 mm 2 mps 744 mmHg 79%
    12:00 +5°C° 0 mm 2 mps 743 mmHg 75%
    13:00 +5°C° 0 mm 2 mps 743 mmHg 74%
    14:00 +6°C° 0 mm 1 mps 743 mmHg 72%
    15:00 +6°C° 0 mm 1 mps 742 mmHg 70%
    16:00 +6°C° 0 mm 1 mps 743 mmHg 73%
    17:00 +5°C° 0 mm 2 mps 743 mmHg 75%
    18:00 +4°C° 0 mm 2 mps 743 mmHg 78%
    19:00 +4°C° 0 mm 2 mps 743 mmHg 76%
    20:00 +5°C° 0 mm 1 mps 743 mmHg 75%
    21:00 +6°C° 0 mm 1 mps 743 mmHg 74%
    22:00 +4°C° 0 mm 2 mps 743 mmHg 74%
    23:00 +3°C° 0 mm 3 mps 743 mmHg 73%

    Tomorrow, 17 February, Sunday

    Time Temperature Precipitation Wind Pressure Humidity
    00:00 +3°C° 0 mm 4 mps 743 mmHg 73%
    01:00 +2°C° 0.1 mm 5 mps 743 mmHg 74%
    02:00 +2°C° 0.1 mm 6 mps 743 mmHg 75%
    03:00 +1°C° 0.1 mm 6 mps 743 mmHg 75%
    04:00 +1°C° 0.1 mm 6 mps 743 mmHg 77%
    05:00 +1°C° 0.1 mm 6 mps 743 mmHg 79%
    06:00 +1°C° 0.1 mm 6 mps 743 mmHg 80%
    07:00 +1°C° 0.1 mm 6 mps 744 mmHg 78%
    08:00 +2°C° 0.1 mm 6 mps 744 mmHg 76%
    09:00 +2°C° 0.1 mm 7 mps 744 mmHg 74%
    10:00 +3°C° 0 mm 7 mps 744 mmHg 68%
    11:00 +4°C° 0 mm 7 mps 744 mmHg 63%
    12:00 +5°C° 0 mm 8 mps 744 mmHg 57%
    13:00 +5°C° 0.1 mm 7 mps 743 mmHg 57%
    14:00 +5°C° 0.1 mm 6 mps 743 mmHg 57%
    15:00 +7°C° 0.1 mm 5 mps 743 mmHg 57%
    16:00 +6°C° 0.1 mm 4 mps 743 mmHg 63%
    17:00 +5°C° 0.1 mm 3 mps 742 mmHg 68%
    18:00 +6°C° 0.1 mm 1 mps 742 mmHg 74%
    19:00 +5°C° 0 mm 2 mps 742 mmHg 74%
    20:00 +4°C° 0 mm 2 mps 742 mmHg 73%
    21:00 +3°C° 0 mm 3 mps 742 mmHg 73%
    22:00 +4°C° 0 mm 3 mps 742 mmHg 69%
    23:00 +4°C° 0 mm 3 mps 742 mmHg 65%

    Day after tomorrow, 18 February, Monday

    Time Temperature Precipitation Wind Pressure Humidity
    00:00 +4°C° 0 mm 3 mps 741 mmHg 60%
    01:00 +4°C° 0 mm 3 mps 741 mmHg 58%
    02:00 +5°C° 0 mm 2 mps 740 mmHg 56%
    03:00 +6°C° 0 mm 2 mps 740 mmHg 54%
    04:00 +6°C° 0 mm 1 mps 740 mmHg 53%
    05:00 +6°C° 0 mm 1 mps 739 mmHg 53%
    06:00 +6°C° 0 mm 1 mps 739 mmHg 53%
    07:00 +7°C° 0 mm 1 mps 739 mmHg 51%
    08:00 +8°C° 0 mm 1 mps 739 mmHg 49%
    09:00 +9°C° 0 mm 1 mps 739 mmHg 47%
    10:00 +9°C° 0 mm 2 mps 739 mmHg 48%
    11:00 +8°C° 0 mm 4 mps 738 mmHg 50%
    12:00 +9°C° 0 mm 5 mps 738 mmHg 51%
    13:00 +9°C° 0 mm 6 mps 738 mmHg 52%
    14:00 +9°C° 0 mm 6 mps 737 mmHg 52%
    15:00 +9°C° 0 mm 7 mps 737 mmHg 53%
    16:00 +8°C° 0.1 mm 7 mps 738 mmHg 61%
    17:00 +5°C° 0.1 mm 7 mps 738 mmHg 69%
    18:00 +4°C° 0.1 mm 7 mps 738 mmHg 78%
    19:00 +2°C° 0.6 mm 8 mps 739 mmHg 79%
    20:00 +1°C° 0.6 mm 9 mps 739 mmHg 81%
    21:00 0°C° 0.6 mm 9 mps 740 mmHg 82%
    22:00 0°C° 0.2 mm 10 mps 740 mmHg 82%
    23:00 -2°C° 0.2 mm 10 mps 741 mmHg 81%

    19 February, Tuesday

    Time Temperature Precipitation Wind Pressure Humidity
    00:00 -3°C° 0.2 mm 10 mps 741 mmHg 81%
    01:00 -3°C° 0 mm 10 mps 741 mmHg 80%
    02:00 -3°C° 0 mm 10 mps 742 mmHg 80%
    03:00 -3°C° 0 mm 10 mps 742 mmHg 79%
    04:00 -4°C° 0 mm 10 mps 743 mmHg 78%
    05:00 -4°C° 0 mm 10 mps 743 mmHg 77%
    06:00 -5°C° 0 mm 10 mps 744 mmHg 76%
    07:00 -4°C° 0 mm 11 mps 745 mmHg 74%
    08:00 -4°C° 0 mm 11 mps 746 mmHg 72%
    09:00 -4°C° 0 mm 11 mps 746 mmHg 69%
    10:00 -3°C° 0 mm 12 mps 747 mmHg 65%
    11:00 -3°C° 0 mm 12 mps 747 mmHg 62%
    12:00 -2°C° 0 mm 13 mps 748 mmHg 58%
    13:00 -2°C° 0 mm 12 mps 748 mmHg 57%
    14:00 -2°C° 0 mm 12 mps 748 mmHg 56%
    15:00 -2°C° 0 mm 11 mps 749 mmHg 55%
    16:00 -2°C° 0 mm 10 mps 750 mmHg 58%
    17:00 -2°C° 0 mm 8 mps 750 mmHg 62%
    18:00 -3°C° 0 mm 7 mps 751 mmHg 65%
    19:00 -3°C° 0 mm 6 mps 752 mmHg 67%
    20:00 -2°C° 0 mm 5 mps 752 mmHg 69%
    21:00 -3°C° 0 mm 4 mps 753 mmHg 71%
    22:00 -3°C° 0 mm 4 mps 753 mmHg 72%
    23:00 -3°C° 0 mm 4 mps 753 mmHg 72%

    20 February, Wednesday

    Time Temperature Precipitation Wind Pressure Humidity
    00:00 -2°C° 0 mm 3 mps 754 mmHg 73%
    01:00 -2°C° 0 mm 3 mps 754 mmHg 73%
    02:00 -2°C° 0 mm 2 mps 754 mmHg 72%
    03:00 0°C° 0 mm 1 mps 754 mmHg 72%
    04:00 0°C° 0 mm 1 mps 754 mmHg 70%
    05:00 0°C° 0 mm 1 mps 754 mmHg 68%
    06:00 0°C° 0 mm 1 mps 754 mmHg 65%
    07:00 -1°C° 0 mm 2 mps 754 mmHg 61%
    08:00 0°C° 0 mm 3 mps 754 mmHg 58%
    09:00 0°C° 0 mm 4 mps 754 mmHg 54%
    10:00 +1°C° 0 mm 4 mps 753 mmHg 55%
    11:00 +1°C° 0 mm 5 mps 753 mmHg 55%
    12:00 +2°C° 0 mm 6 mps 752 mmHg 56%
    13:00 +2°C° 0 mm 6 mps 752 mmHg 58%
    14:00 +2°C° 0 mm 6 mps 751 mmHg 60%
    15:00 +3°C° 0 mm 6 mps 751 mmHg 62%
    16:00 +2°C° 0 mm 6 mps 751 mmHg 67%
    17:00 +1°C° 0 mm 6 mps 751 mmHg 71%
    18:00 -1°C° 0 mm 6 mps 751 mmHg 76%
    19:00 +1°C° 0 mm 6 mps 750 mmHg 75%
    20:00 +1°C° 0 mm 5 mps 750 mmHg 75%
    21:00 +1°C° 0 mm 5 mps 750 mmHg 74%
    22:00 +1°C° 0 mm 4 mps 750 mmHg 73%
    23:00 +2°C° 0 mm 3 mps 749 mmHg 72%

    21 February, Thursday

    Time Temperature Precipitation Wind Pressure Humidity
    00:00 +2°C° 0 mm 3 mps 749 mmHg 72%
    01:00 +3°C° 0 mm 2 mps 748 mmHg 70%
    02:00 +3°C° 0 mm 2 mps 748 mmHg 69%
    03:00 +4°C° 0 mm 1 mps 748 mmHg 68%
    04:00 +3°C° 0 mm 2 mps 748 mmHg 66%
    05:00 +2°C° 0 mm 3 mps 748 mmHg 64%
    06:00 +1°C° 0 mm 4 mps 748 mmHg 62%
    07:00 +3°C° 0 mm 4 mps 747 mmHg 58%
    08:00 +3°C° 0 mm 4 mps 747 mmHg 53%
    09:00 +4°C° 0 mm 4 mps 747 mmHg 49%
    10:00 +5°C° 0 mm 5 mps 747 mmHg 48%
    11:00 +6°C° 0 mm 5 mps 747 mmHg 48%
    12:00 +7°C° 0 mm 5 mps 746 mmHg 47%
    13:00 +7°C° 0 mm 4 mps 746 mmHg 46%
    14:00 +7°C° 0 mm 4 mps 746 mmHg 45%
    15:00 +7°C° 0 mm 4 mps 746 mmHg 45%
    16:00 +7°C° 0 mm 3 mps 746 mmHg 48%
    17:00 +6°C° 0 mm 2 mps 746 mmHg 51%
    18:00 +6°C° 0 mm 1 mps 746 mmHg 55%
    19:00 +6°C° 0 mm 1 mps 746 mmHg 56%
    20:00 +5°C° 0 mm 1 mps 746 mmHg 58%
    21:00 +4°C° 0 mm 0 mps 746 mmHg 59%
    22:00 +5°C° 0 mm 1 mps 746 mmHg 59%
    23:00 +5°C° 0 mm 1 mps 746 mmHg 59%
    Show more